Hourly Data Report for October 04, 2017

All times are specified in Local Standard Time (LST). Add 1 hour to adjust for Daylight Saving Time where and when it is observed.

WINNIPEG A CS
MANITOBA

49°55'00.000" N
97°14'58.000" W
238.70 m
502S001
71849
XWG

Download Data

Hourly Data (October 2017)
Hourly Data Report for October 4, 2017
Temp Definition
°C
Dew Point Temp Definition
°C
Rel Hum Definition
%
Wind Dir Definition
10's deg

Wind Spd Definition
km/h
Visibility Definition
km
Stn Press Definition
kPa
Hmdx Definition


Wind Chill Definition


Weather Definition


TIME
00:00 3.7 1.4 85 26 11   99.16     LegendNANA
01:00 4.3 1.6 83 25 13   99.20     LegendNANA
02:00 5.4 2.0 79 24 15   99.23     LegendNANA
03:00 5.8 2.9 81 25 17   99.24     LegendNANA
04:00 6.6 4.8 88 26 19   99.24     LegendNANA
05:00 7.1 5.8 92 26 16   99.28     LegendNANA
06:00 6.2 4.7 90 25 15   99.29     LegendNANA
07:00 6.3 4.7 90 25 15   99.32     LegendNANA
08:00 6.6 3.8 82 26 27   99.33     LegendNANA
09:00 7.4 3.4 76 26 29   99.32     LegendNANA
10:00 9.4 3.7 67 26 29   99.32     LegendNANA
11:00 11.3 2.6 55 26 29   99.25     LegendNANA
12:00 12.5 2.2 49 25 27   99.21     LegendNANA
13:00 13.5 1.8 45 24 30   99.09     LegendNANA
14:00 14.8 2.3 43 25 28   99.02     LegendNANA
15:00 14.8 1.1 39 25 26   99.00     LegendNANA
16:00 14.4 1.9 43 24 26   98.95     LegendNANA
17:00 13.6 1.5 44 24 19   98.96     LegendNANA
18:00 11.4 2.7 55 24 21   98.96     LegendNANA
19:00 9.7 3.0 63 24 23   98.99     LegendNANA
20:00 9.0 2.7 65 24 23   99.01     LegendNANA
21:00 7.5 2.5 71 25 17   99.04     LegendNANA
22:00 5.3 2.0 79 25 14   99.03     LegendNANA
23:00 4.1 1.9 86 25 14   99.03     LegendNANA

Notes on Data Quality.

Legend

  • E = Estimated
  • M = Missing
  • NA = Not Available
  • ‡ = Partner data that is not subject to review by the National Climate Archives
Date modified: